Retour au catalogue

STARLINK-32083

ActifCommunicationsVLEO
NORAD 60343·PAYLOAD·🇺🇸 United States

Lancé Aug 2, 2024 depuis Cape Canaveral Space Force Station

Loading…

Prochains Passages (prochaines 24 heures)

TLE

FraisSource: CelesTrak SupGP

Époque: Sep 14, 2026, 21:39 UTC

1 60343C 24136Q   26257.90256944  .00051018  00000+0  15077-2 0  2576
2 60343  53.1584 276.1353 0001158  84.6787 240.3569 15.34357788    17

Suivez STARLINK-32083 en temps réel avec AllMySat

Download on the App Store